Fort Knox, KY

4:59 PM EST on December 09, 2019 (GMT -0500)
Godman Army Air Field

Weather History for KFTK - October, 2019

Change the Weather History Date:

Thursday, October 10, 2019

  Actual Average Record
Temperature  
Mean Temperature 67 °F -  
Max Temperature 82 °F 68 °F 88 °F (2010)
Min Temperature 53 °F 46 °F 28 °F (2000)
Cooling Degree Days 2    
Growing Degree Days 17 (Base 50)    
Moisture  
Dew Point 59 °F    
Average Humidity 77    
Maximum Humidity 100    
Minimum Humidity 48    
Precipitation  
Precipitation 0.00 in - - ()
Sea Level Pressure  
Sea Level Pressure 30.09 in    
Wind  
Wind Speed 6 mph (ESE)    
Max Wind Speed 14 mph    
Max Gust Speed -    
Visibility 8 miles    
Events Rain    
Averages and records for this station are not official NWS values.
T = Trace of Precipitation, MM = Missing Value Source: NWS Daily Summary

Daily Weather History Graph

Daily Weather History Graph

Search for Another Location

Airport or City:

Astronomy

Oct. 10, 2019 Rise Set
Actual Time 7:47 AM EDT 7:13 PM EDT
Civil Twilight 7:21 AM EDT 7:40 PM EDT
Nautical Twilight 6:50 AM EDT 8:10 PM EDT
Astronomical Twilight 6:20 AM EDT 8:40 PM EDT
Moon 6:10 PM EDT (10/10) 4:35 AM EDT (10/10)
Length of Visible Light 12h 18m
Length of Day
11h 26m
Waxing Gibbous, 91% of the Moon is Illuminated
Oct 10
Waxing Gibbous
Oct 13
Full
Oct 21
Last Quarter
Oct 27
New
Nov 4
First Quarter

Hourly Weather History & Observations

Time (EDT) Temp. Heat Index Dew Point Humidity Pressure Visibility Wind Dir Wind Speed Gust Speed Precip Events Conditions
12:56 AM 55.2 °F - 55.2 °F 100% 30.12 in 8.0 mi East 5.8 mph - N/A   Clear
1:56 AM 56.1 °F - 56.1 °F 100% 30.12 in 8.0 mi East 5.8 mph - N/A   Clear
2:56 AM 56.1 °F - 56.1 °F 100% 30.11 in 9.0 mi East 3.5 mph - N/A   Clear
3:56 AM 56.3 °F - 56.3 °F 100% 30.11 in 8.0 mi East 5.8 mph - N/A   Clear
4:56 AM 55.4 °F - 55.4 °F 100% 30.12 in 4.0 mi Calm Calm - N/A   Partly Cloudy
5:11 AM 55.4 °F - 55.4 °F 100% 30.12 in 0.9 mi Calm Calm - N/A   Scattered Clouds
5:26 AM 53.6 °F - 53.6 °F 100% 30.12 in 1.5 mi Calm Calm - N/A   Scattered Clouds
5:41 AM 55.4 °F - 55.4 °F 100% 30.12 in 3.0 mi East 3.5 mph - N/A   Partly Cloudy
5:52 AM 55.4 °F - 55.4 °F 100% 30.13 in 5.0 mi East 3.5 mph - N/A Rain Light Rain
5:56 AM 54.9 °F - 54.9 °F 100% 30.13 in 6.0 mi East 4.6 mph - 0.00 in Rain Light Rain
6:02 AM 55.4 °F - 55.4 °F 100% 30.13 in 7.0 mi East 3.5 mph - N/A   Scattered Clouds
6:56 AM 55.4 °F - 55.4 °F 100% 30.13 in 9.0 mi East 3.5 mph - 0.00 in   Mostly Cloudy
7:56 AM 55.8 °F - 55.8 °F 100% 30.13 in 10.0 mi East 3.5 mph - N/A   Mostly Cloudy
8:56 AM 57.7 °F - 57.7 °F 100% 30.13 in 10.0 mi East 3.5 mph - N/A   Mostly Cloudy
9:56 AM 61.5 °F - 61.5 °F 100% 30.15 in 10.0 mi East 4.6 mph - N/A   Scattered Clouds
10:56 AM 69.6 °F - 63.9 °F 82% 30.14 in 10.0 mi SE 5.8 mph - N/A   Mostly Cloudy
11:56 AM 76.6 °F - 62.1 °F 61% 30.14 in 10.0 mi SSE 11.5 mph - N/A   Mostly Cloudy
12:30 PM 77.0 °F - 62.6 °F 61% 30.12 in 10.0 mi SSE 10.4 mph - N/A   Clear
12:56 PM 77.7 °F - 62.2 °F 59% 30.13 in 9.0 mi SSE 8.1 mph - N/A   Mostly Cloudy
1:33 PM 78.8 °F - 62.6 °F 57% 30.11 in 10.0 mi South 10.4 mph - N/A   Scattered Clouds
1:56 PM 78.6 °F - 61.5 °F 56% 30.11 in 10.0 mi SSE 6.9 mph - N/A   Partly Cloudy
2:14 PM 80.6 °F 81.8 °F 62.6 °F 54% 30.09 in 10.0 mi SE 8.1 mph - N/A   Clear
2:56 PM 81.5 °F 82.1 °F 60.4 °F 49% 30.08 in 10.0 mi SE 13.8 mph - N/A   Scattered Clouds
3:24 PM 80.6 °F 81.5 °F 60.8 °F 51% 30.06 in 10.0 mi SSE 11.5 mph - N/A   Partly Cloudy
3:56 PM 81.1 °F 81.6 °F 59.5 °F 48% 30.06 in 10.0 mi South 12.7 mph - N/A   Scattered Clouds
4:18 PM 80.6 °F 81.1 °F 59.0 °F 48% 30.04 in 10.0 mi SE 8.1 mph - N/A   Mostly Cloudy
4:56 PM 81.0 °F 81.6 °F 59.9 °F 49% 30.04 in 10.0 mi SSE 11.5 mph - N/A   Partly Cloudy
5:56 PM 78.8 °F - 59.7 °F 52% 30.04 in 10.0 mi SE 8.1 mph - N/A   Mostly Cloudy
6:56 PM 77.2 °F - 59.7 °F 55% 30.03 in 10.0 mi ESE 4.6 mph - N/A   Overcast
7:56 PM 74.1 °F - 59.7 °F 61% 30.03 in 10.0 mi ESE 6.9 mph - N/A   Clear
8:56 PM 73.4 °F - 60.1 °F 63% 30.02 in 10.0 mi ESE 6.9 mph - N/A   Partly Cloudy
9:56 PM 72.1 °F - 59.7 °F 65% 30.03 in 10.0 mi SE 8.1 mph - N/A   Clear
10:56 PM 71.4 °F - 58.6 °F 64% 30.04 in 10.0 mi SE 5.8 mph - N/A   Partly Cloudy
11:56 PM 68.0 °F - 59.0 °F 73% 30.04 in 10.0 mi SE 3.5 mph - N/A   Clear